TimeEDT,TemperatureF,Dew PointF,Humidity,Sea Level PressureIn,VisibilityMPH,Wind Direction,Wind SpeedMPH,Gust SpeedMPH,PrecipitationIn,Events,Conditions,WindDirDegrees,DateUTC
12:51 AM,63.0,57.9,84,29.90,10.0,North,10.4,-,N/A,,Overcast,360,2013-09-13 04:51:00
1:51 AM,62.1,57.9,86,29.91,10.0,NNW,6.9,-,N/A,,Scattered Clouds,340,2013-09-13 05:51:00
2:42 AM,60.8,57.2,88,29.93,10.0,NNW,10.4,-,N/A,,Mostly Cloudy,340,2013-09-13 06:42:00
2:51 AM,61.0,57.9,90,29.92,10.0,NNW,10.4,-,N/A,,Mostly Cloudy,330,2013-09-13 06:51:00
3:04 AM,62.6,57.2,82,29.93,10.0,NNW,11.5,-,N/A,,Overcast,330,2013-09-13 07:04:00
3:34 AM,60.8,55.4,82,29.93,10.0,NNW,9.2,18.4,N/A,,Scattered Clouds,340,2013-09-13 07:34:00
3:51 AM,60.1,55.0,83,29.92,10.0,NNW,11.5,18.4,N/A,,Partly Cloudy,340,2013-09-13 07:51:00
4:51 AM,57.9,52.0,81,29.94,10.0,NNW,13.8,-,N/A,,Clear,340,2013-09-13 08:51:00
5:51 AM,55.9,51.1,84,29.95,10.0,NNW,10.4,-,N/A,,Clear,330,2013-09-13 09:51:00
6:51 AM,55.0,48.9,80,29.96,10.0,NNW,10.4,-,N/A,,Clear,330,2013-09-13 10:51:00
7:51 AM,54.0,46.9,77,29.99,10.0,NNW,10.4,-,N/A,,Clear,330,2013-09-13 11:51:00
8:51 AM,55.9,46.9,72,29.98,10.0,NNW,12.7,20.7,N/A,,Partly Cloudy,340,2013-09-13 12:51:00
9:51 AM,59.0,48.0,67,29.99,10.0,NNW,11.5,-,N/A,,Scattered Clouds,340,2013-09-13 13:51:00
10:51 AM,61.0,48.0,62,30.00,9.0,NNW,12.7,-,N/A,,Scattered Clouds,330,2013-09-13 14:51:00
11:51 AM,62.1,48.0,60,30.01,10.0,NW,9.2,-,N/A,,Mostly Cloudy,320,2013-09-13 15:51:00
12:51 PM,64.0,48.0,56,30.01,10.0,NNW,15.0,18.4,N/A,,Mostly Cloudy,330,2013-09-13 16:51:00
1:51 PM,62.1,48.0,60,30.01,10.0,NNW,10.4,20.7,N/A,,Overcast,340,2013-09-13 17:51:00
2:51 PM,64.9,48.9,56,30.00,10.0,North,16.1,23.0,N/A,,Mostly Cloudy,10,2013-09-13 18:51:00
3:51 PM,64.0,48.0,56,30.00,10.0,North,16.1,24.2,N/A,,Mostly Cloudy,350,2013-09-13 19:51:00
4:51 PM,63.0,48.0,58,30.01,10.0,North,16.1,-,N/A,,Mostly Cloudy,350,2013-09-13 20:51:00
5:51 PM,63.0,48.0,58,30.02,10.0,North,16.1,-,N/A,,Mostly Cloudy,10,2013-09-13 21:51:00
6:51 PM,61.0,46.9,60,30.03,10.0,North,10.4,-,N/A,,Scattered Clouds,360,2013-09-13 22:51:00
7:51 PM,59.0,46.0,62,30.05,10.0,North,10.4,-,N/A,,Partly Cloudy,360,2013-09-13 23:51:00
8:51 PM,57.0,46.0,67,30.07,10.0,North,10.4,-,N/A,,Partly Cloudy,360,2013-09-14 00:51:00
9:51 PM,55.0,46.9,74,30.08,10.0,North,5.8,-,N/A,,Clear,360,2013-09-14 01:51:00
10:51 PM,54.0,46.9,77,30.09,10.0,North,6.9,-,N/A,,Partly Cloudy,360,2013-09-14 02:51:00
11:51 PM,53.1,46.9,80,30.09,10.0,North,8.1,-,N/A,,Partly Cloudy,10,2013-09-14 03:51:00